Location: Observatoire
(46.1952°N, 5.3391°E)
Time: 02:04:13
(UTC+01:00)

Explorer 7 - Pass Details

Date: 24 February 2026
Orbit: 430 x 541 km, 50.2° (Epoch: 10 March)

Event Time Altitude Azimuth Distance (km) Brightness Sun altitude
Rises 16:32:25 0° 286° (WNW) 2,439 10.8 15.9°
Reaches altitude 10° 16:34:34 10° 293° (WNW) 1,583 9.8 15.6°
Maximum altitude 16:38:01 45° 7° (N) 644 7.1 15.1°
Drops below altitude 10° 16:41:35 10° 82° (E) 1,641 8.7 14.5°
Sets 16:43:51 0° 88° (E) 2,542 9.7 14.2°
